Location: Dittelspoint
(48.7198°N, 10.7214°E)
Time: 23:45:35
(UTC+00:00)

Cosmos 2151 - Pass Details

Date: 09 April 2020
Orbit: 582 x 600 km, 82.5° (Epoch: 23 May)

Event Time Altitude Azimuth Distance (km) Brightness Sun altitude
Rises 21:01:32 0° 345° (NNW) 2,818 7.5 -25.8°
Reaches altitude 10° 21:03:47 10° 340° (NNW) 1,913 6.5 -26.0°
Enters shadow 21:07:38 47° 276° (W) 780 3.7 -26.4°
